TDRS 7

Last updated on Wed Sep 17 2025 00:02:40 GMT+0000 (Coordinated Universal Time)

1 23613U 95035B 25259.59862950 -.00000251 00000+0 00000+0 0 9991 2 23613 13.4914 350.0591 0008038 105.5839 204.6148 1.00278018110501
UTC large
Height (km)
Speed (km/s)
/
Latitude / Longitude
Inclination (degrees)
Orbital Period (minutes)
Azimuth
Elevation
Range (km)
Doppler Factor

Next 0 passes for location: London (51.5072 / 0.1276)

Sorry there are no passes over London.